Regional Weather Roundup
Issued by NWS

Home | Current Version | Previous Version | Graphics & Text | Print | Product List | Glossary On
Versions: 1 2 3 4 5 6 7 8 9 10 11 12 13 14 15 16 17 18 19 20 21 22 23 24 25 26 27 28 29 30 31 32 33 34 35 36 37 38 39 40 41 42 43 44 45 46 47 48 49 50
711
ASUS44 KLIX 250610
RWRLA
LOUISIANA WEATHER ROUNDUP
NATIONAL WEATHER SERVICE NEW ORLEANS LA
100 AM CDT FRI APR 25 2014

NOTE: "FAIR" INDICATES FEW OR NO CLOUDS BELOW 12,000 FEET WITH NO
      SIGNIFICANT WEATHER AND/OR OBSTRUCTIONS TO VISIBILITY.
      SKY/WX - SKY CONDITION AND SIGNIFICANT WEATHER.
      TMP - AIR TEMPERATURE.    DP   - DEWPOINT TEMPERATURE.
      RH  - RELATIVE HUMIDITY.  PRES - PRESSURE.
      HX  - HEAT INDEX.         WCI  - WIND CHILL INDEX.

*  THESE STATIONS ARE NOT NWS OR FAA STATIONS AND ARE NOT UNDER
   NWS QUALITY CONTROL.

LAZ040-048-061>063-065-066-069-250700-
SOUTHEAST LOUISIANA

CITY           SKY/WX    TMP DP  RH WIND       PRES   REMARKS
N.O. AUDUBON     N/A     73  67  83 MISG        N/A
6HR MIN TEMP:  71; 6HR MAX TEMP:  78;

N.O. INTL ARPT MOCLDY    69  67  93 W6        29.94S
6HR MIN TEMP:  69; 6HR MAX TEMP:  76;

N.O. LAKEFRONT CLOUDY    72  68  87 SW9       29.94F
6HR MIN TEMP:  71; 6HR MAX TEMP:  75;

N.O. DOWNTOWN* CLOUDY    73  64  73 SW3       29.94S
6HR MIN TEMP:  73; 6HR MAX TEMP:  79;

SLIDELL        CLOUDY    72  67  84 S5        29.92F
6HR MIN TEMP:  72; 6HR MAX TEMP:  76;

BATON ROUGE    CLOUDY    73  67  81 SW8       29.93S
6HR MIN TEMP:  73; 6HR MAX TEMP:  78;

BOOTHVILLE     FAIR      72  69  90 S9        29.95F
6HR MIN TEMP:  72; 6HR MAX TEMP:  73;

BELLE CHASSE   FAIR      69  65  86 SW5       29.92F
6HR MIN TEMP:  69; 6HR MAX TEMP:  75;

BOGALUSA*        N/A     73  66  80 SW5       29.94S
6HR MIN TEMP:  70; 6HR MAX TEMP:  78;

GALLIANO*      MOCLDY    74  69  85 S7        29.94S
6HR MIN TEMP:  73; 6HR MAX TEMP:  76;

NEW ROADS*     MOCLDY    71  66  85 CALM      29.92F
6HR MIN TEMP:  71; 6HR MAX TEMP:  77;

GONZALES*      CLOUDY    71  69  95 CALM      29.93S
6HR MIN TEMP:  71; 6HR MAX TEMP:  77;

HAMMOND*       CLOUDY    72  64  78 CALM      29.94F
HOUMA*           N/A     68  65  92 CALM      29.94S FOG
6HR MIN TEMP:  67; 6HR MAX TEMP:  75;

PORT FOURCHON*   N/A     73  70  88 S6        29.96F

$$

LAZ041-044-053-054-250700-
SOUTHWEST LOUISIANA

CITY           SKY/WX    TMP DP  RH WIND       PRES   REMARKS
LAKE CHARLES   FAIR      66  65  96 CALM      29.93S
6HR MIN TEMP:  66; 6HR MAX TEMP:  74;

LAFAYETTE      CLOUDY    72  69  90 SW6       29.94R
6HR MIN TEMP:  72; 6HR MAX TEMP:  75;

PATTERSON      MOCLDY    70  70 100 SW6       29.97S
6HR MIN TEMP:  68; 6HR MAX TEMP:  73;

SALT POINT       N/A     73  70  90 CALM      29.93S
6HR MIN TEMP:  73; 6HR MAX TEMP:  76;

NEW IBERIA     CLOUDY    73  68  84 SW5       29.94S
6HR MIN TEMP:  73; 6HR MAX TEMP:  75;

CHENAULT AIRPK FAIR      70  67  89 SW5       29.94S
6HR MIN TEMP:  70; 6HR MAX TEMP:  75;


$$

LAZ027-028-250700-
CENTRAL LOUISIANA

CITY           SKY/WX    TMP DP  RH WIND       PRES   REMARKS
FORT POLK      FAIR      68  66  93 SW5       29.91S
6HR MIN TEMP:  68; 6HR MAX TEMP:  75;

ALEXANDRIA INT FAIR      70  66  87 SW7       29.89S
6HR MIN TEMP:  69; 6HR MAX TEMP:  78;

ALEXANDRIA     FAIR      69  65  86 SW6       29.90S
6HR MIN TEMP:  69; 6HR MAX TEMP:  79;


$$

LAZ001-002-250700-
NORTHWEST LOUISIANA

CITY           SKY/WX    TMP DP  RH WIND       PRES   REMARKS
SHREVEPORT     FAIR      66  53  63 N8        29.91R
6HR MIN TEMP:  65; 6HR MAX TEMP:  78;

BARKSDALE AFB  FAIR      63  53  68 NW8       29.91R
6HR MIN TEMP:  63; 6HR MAX TEMP:  78;

DTN SHREVEPORT FAIR      67  51  56 NW7       29.91R
6HR MIN TEMP:  66; 6HR MAX TEMP:  77;


$$

LAZ014-016-250700-
NORTHEAST LOUISIANA

CITY           SKY/WX    TMP DP  RH WIND       PRES   REMARKS
MONROE         FAIR      68  65  90 W6        29.90R
6HR MIN TEMP:  68; 6HR MAX TEMP:  77; 6HR PCP: TRACE;

TALLULAH       CLOUDY    74  65  73 VRB6      29.87S
6HR MIN TEMP:  73; 6HR MAX TEMP:  80; 6HR PCP: TRACE;


$$




USA.gov is the U.S. government's official web portal to all federal, state and local government web resources and services.